Search your local weather  

 
Advertise Here

Hazardous Weather Conditions

No active alerts for NEW YORK, NEW YORK

Current Conditions: NEW YORK, NEW YORK

A Few Clouds


61.0 F

Last Updated on May 16 2021, 1:51 am EDT
Humidity: 54%
Wind Speed: S 5.8 mph
Barometer 30.22 in
Dewpoint: 44.1 F
Visibility: 10.00 mi
Precip: --
Heat Index: NA
Wind Chill: 61 F
Current conditions at:

Teterboro, Teterboro Airport, NJ (KTEB)

Lat: 40.85889 Lon: -74.05667

Local Radar Image active severe weather and emergency alerts image image weather storm and storm spotter reports image weather observation monitoring service image
Local
Radar
Active
Alerts
Storm Reports Weather
Monitoring

5 Day Forecast for NEW YORK, NEW YORK (10001)

Sunday

Chance of Rain Showers
High 75 °F
Sunday
Night
Chance of Rain Showers
Low 54 °F
Monday

Isolated T-storm

High 74 °F
Monday
Night
Partly Cloudy

Low 55 °F
Tuesday

Partly Sunny

High 77 °F
Tuesday
Night
Partly Sunny

Low 58 °F
Wednesday

Mostly Sunny

High 83 °F
Wednesday
Night
Mostly Clear

Low 61 °F
Thursday

Mostly Cloudy

High 83 °F

Sign-up For Email & Text Message Weather Alert Notification Services


Advertise Here

Observation History for NEW YORK, NEW YORK


Time Wind
(mph)
Vis
(mi)
Weather Precip (in) Temperature (F) Relative
Humidity
Wind
Chill
(F)
Heat
Index
(F)
Pressure
Air Dwpt altimeter
(in)
sea level
(mb)
1:51 am EDT S 5.8 10.00 A Few Clouds -- 61.0 44.1 54% 61 NA 30.22 1023.1
12:51 am EDT N 0.0 10.00 Fair -- 62.0 42.1 48% NA NA 30.21 1022.9
11:51 pm EDT N 0.0 10.00 Fair -- 63.0 39.9 43% NA NA 30.21 1022.8
10:51 pm EDT N 0.0 10.00 Fair -- 63.0 42.1 47% NA NA 30.21 1022.9
9:51 pm EDT S 3.5 10.00 Fair -- 63.0 41.0 45% NA NA 30.21 1022.9
8:51 pm EDT S 4.6 10.00 Fair -- 65.0 37.0 36% NA NA 30.19 1022.4
7:51 pm EDT S 9.2 10.00 Mostly Cloudy -- 68.0 35.1 30% NA NA 30.18 1022.1
6:51 pm EDT SW 10.4 10.00 A Few Clouds -- 70.0 37.9 31% NA NA 30.17 1021.7
3:51 pm EDT E 3.5 10.00 Mostly Cloudy -- 73.0 36.0 26% NA NA 30.20 1022.5
1:51 pm EDT SW 6.9 G 23.0 10.00 Mostly Cloudy -- 73.0 35.1 25% NA NA 30.20 1022.6
12:51 pm EDT 4.6 10.00 Fair -- 75.0 36.0 24% NA NA 30.21 1023.1
11:51 am EDT 4.6 10.00 Fair -- 75.0 39.9 28% NA NA 30.23 1023.6
10:51 am EDT N 6.9 10.00 Fair -- 72.0 37.0 28% NA NA 30.23 1023.8
9:51 am EDT 5.8 10.00 Fair -- 69.0 37.9 32% NA NA 30.24 1023.9
8:51 am EDT 4.6 10.00 Fair -- 65.0 37.9 37% NA NA 30.24 1024.0
7:51 am EDT N 0.0 10.00 Fair -- 60.0 43.0 53% NA NA 30.24 1024.0
6:51 am EDT N 0.0 10.00 Fair -- 54.0 42.1 64% NA NA 30.23 1023.6
5:51 am EDT N 0.0 10.00 Fair -- 50.0 39.0 66% NA NA 30.22 1023.2
4:51 am EDT N 4.6 10.00 Fair -- 50.0 37.9 63% 48 NA 30.20 1022.6

Regional Weather Observation

Caldwell, Essex County Airport, NJ (KCDW)

Partly Cloudy
60.0 F

New York Downtown Manhattan, NY (KJRB)

A Few Clouds
61.0 F

Morristown Municipal, NJ (KMMU)

Partly Cloudy
52.0 F

Newark, Newark International Airport, NJ (KEWR)

Overcast
63.0 F

Linden Airport, NJ (KLDJ)

Fair
61.0 F

New York City, Central Park, NY (KNYC)

A Few Clouds
63.0 F
Advertise Here

Advertise Here